EW2137 Weather Reports


time (UTC)temp
F
wind
direction
speed
knots
gust
knots
rain 1hr
in
rain 24hr
in
rain mn
in
humidity
%
barometer
mb
20260508023057 65 235 10.4 16.5 0.00 0.00 0.00 17 1011.1
20260508021555 66 248 12.2 20.0 0.00 0.00 0.00 15 1011.0
20260508020057 67 242 12.2 19.1 0.00 0.00 0.00 16 1011.2
20260508014556 68 234 13.0 20.0 0.00 0.00 0.00 14 1011.2
20260508013053 69 240 13.0 19.1 0.00 0.00 0.00 13 1011.2
20260508011553 70 227 14.8 20.0 0.00 0.00 0.00 13 1011.2
20260508010051 70 242 14.8 19.1 0.00 0.00 0.00 15 1011.2
20260508004551 70 249 13.9 19.1 0.00 0.00 0.00 16 1011.2
20260508003100 70 232 14.8 21.7 0.00 0.00 0.00 18 1011.1
20260508001556 71 245 13.9 19.1 0.00 0.00 0.00 17 1011.1
20260508000050 72 263 13.9 20.9 0.00 0.00 0.00 16 1011.0
20260507234550 72 250 14.8 19.1 0.00 0.00 0.00 15 1011.0
20260507233049 72 253 12.2 17.4 0.00 0.00 0.00 18 1011.3
20260507231546 72 243 12.2 19.1 0.00 0.00 0.00 19 1011.3
20260507230044 71 257 12.2 17.4 0.00 0.00 0.00 15 1011.5
20260507224600 72 240 13.9 19.1 0.00 0.00 0.00 16 1011.5
20260507223052 71 260 12.2 16.5 0.00 0.00 0.00 19 1011.8
20260507221541 71 246 8.7 14.8 0.00 0.00 0.00 20 1011.9
20260507220039 72 229 11.3 15.6 0.00 0.00 0.00 15 1012.1
20260507214537 71 232 10.4 18.2 0.00 0.00 0.00 20 1012.3
20260507213039 70 240 11.3 18.2 0.00 0.00 0.00 21 1012.4
20260507211539 71 265 9.6 16.5 0.00 0.00 0.00 22 1012.6
20260507210035 70 258 11.3 15.6 0.00 0.00 0.00 21 1012.7
20260507204530 69 246 11.3 17.4 0.00 0.00 0.00 22 1012.8
20260507203027 69 257 10.4 14.8 0.00 0.00 0.00 25 1012.9
20260507201527 68 262 9.6 15.6 0.00 0.00 0.00 25 1013.0
20260507200022 67 248 12.2 19.1 0.00 0.00 0.00 26 1013.1
20260507194524 67 277 13.9 20.0 0.00 0.00 0.00 29 1013.1
20260507193020 66 265 13.9 20.0 0.00 0.00 0.00 27 1013.2
20260507191519 64 239 14.8 20.0 0.00 0.00 0.00 27 1013.4
20260507190017 64 237 16.5 22.6 0.00 0.00 0.00 29 1013.3
20260507184516 64 229 17.4 24.3 0.00 0.00 0.00 30 1013.5
20260507183014 63 240 19.1 26.1 0.00 0.00 0.00 27 1013.7
20260507181510 62 236 17.4 25.2 0.00 0.00 0.00 36 1013.6
20260507180013 61 218 16.5 22.6 0.00 0.00 0.00 34 1013.9
20260507174507 60 250 19.1 25.2 0.00 0.00 0.00 37 1013.7
20260507173005 60 237 18.2 26.1 0.00 0.00 0.00 42 1014.0
20260507171502 59 252 19.1 25.2 0.00 0.00 0.00 46 1014.0
20260507170100 58 218 19.1 26.1 0.00 0.00 0.00 51 1013.9
20260507164600 58 244 17.4 24.3 0.00 0.00 0.00 58 1013.7
20260507163057 57 242 21.7 26.9 0.00 0.00 0.00 58 1014.0
20260507161559 56 231 20.0 28.7 0.00 0.00 0.00 61 1013.9
20260507160057 56 240 20.0 27.8 0.00 0.00 0.00 60 1013.7
20260507154553 55 240 22.6 28.7 0.00 0.00 0.00 62 1013.8
20260507153059 55 228 20.0 27.8 0.00 0.00 0.00 66 1014.0
20260507151552 54 237 20.0 26.9 0.00 0.00 0.00 67 1014.2
20260507150051 54 232 20.0 26.1 0.00 0.00 0.00 69 1014.1
20260507144550 53 243 18.2 26.9 0.00 0.00 0.00 71 1014.1
20260507143048 52 244 15.6 21.7 0.00 0.00 0.00 76 1013.9
20260507141547 51 236 15.6 20.9 0.00 0.00 0.00 79 1013.9
20260507140101 50 223 13.9 19.1 0.00 0.00 0.00 81 1013.6
20260507134548 49 207 15.6 19.1 0.00 0.00 0.00 83 1013.4
20260507133047 49 212 13.0 18.2 0.00 0.00 0.00 83 1013.4
20260507131548 49 213 14.8 18.2 0.00 0.00 0.00 82 1013.6
20260507130045 49 219 14.8 20.0 0.00 0.00 0.00 83 1013.5
20260507124544 49 217 13.9 20.0 0.00 0.00 0.00 83 1013.4
20260507123041 50 242 17.4 26.1 0.00 0.00 0.00 81 1013.1
20260507121538 50 229 18.2 23.5 0.00 0.00 0.00 80 1013.0
20260507120037 51 238 19.1 27.8 0.00 0.00 0.00 79 1013.0
20260507114536 51 249 17.4 25.2 0.00 0.00 0.00 78 1013.1
20260507113039 52 251 18.2 25.2 0.00 0.00 0.00 78 1013.1
20260507111530 52 250 15.6 20.0 0.00 0.00 0.00 78 1013.7
20260507110028 52 248 15.6 20.9 0.00 0.00 0.00 79 1013.9
20260507104528 51 244 10.4 13.9 0.00 0.00 0.00 81 1014.1
20260507103025 52 236 9.6 13.0 0.00 0.00 0.00 80 1013.9
20260507101535 53 234 12.2 20.0 0.00 0.00 0.00 78 1013.7
20260507100029 54 236 15.6 23.5 0.00 0.00 0.00 77 1013.6
20260507094518 52 238 10.4 13.9 0.00 0.00 0.00 80 1013.5
20260507093020 53 221 11.3 16.5 0.00 0.00 0.00 80 1013.6
20260507091533 54 222 12.2 16.5 0.00 0.00 0.00 78 1013.6
20260507090011 54 211 12.2 19.1 0.00 0.00 0.00 77 1013.7
20260507084509 55 248 9.6 16.5 0.00 0.00 0.00 76 1013.7
20260507083009 55 211 10.4 21.7 0.00 0.00 0.00 75 1013.9
20260507081507 56 251 14.8 22.6 0.00 0.00 0.00 74 1013.8
20260507080006 56 231 16.5 22.6 0.00 0.00 0.00 73 1013.9
20260507074508 56 219 16.5 21.7 0.00 0.00 0.00 74 1014.0
20260507073002 56 217 13.0 20.0 0.00 0.00 0.00 75 1013.8
20260507071601 56 227 13.0 20.9 0.00 0.00 0.00 74 1013.7
20260507070137 57 242 17.4 23.5 0.00 0.00 0.00 73 1013.3
20260507064555 57 236 16.5 26.1 0.00 0.00 0.00 73 1013.0
20260507063100 57 249 17.4 27.8 0.00 0.00 0.00 73 1013.0
20260507061554 58 242 20.9 30.4 0.00 0.00 0.00 72 1013.0
20260507060054 58 232 20.9 28.7 0.00 0.00 0.00 72 1012.7
20260507054556 58 246 22.6 33.0 0.00 0.00 0.00 72 1013.0
20260507053055 58 243 22.6 29.5 0.00 0.00 0.00 71 1013.2
20260507051552 59 253 20.9 29.5 0.00 0.00 0.00 69 1013.1
20260507050052 59 251 20.9 28.7 0.00 0.00 0.00 68 1013.2
20260507044551 59 247 19.1 28.7 0.00 0.00 0.00 66 1013.4
20260507043051 60 253 17.4 26.9 0.00 0.00 0.00 63 1013.3
20260507041548 60 239 18.2 26.1 0.00 0.00 0.00 61 1013.1
20260507040050 60 248 20.0 26.1 0.00 0.00 0.00 60 1012.9
20260507034549 61 243 21.7 28.7 0.00 0.00 0.00 59 1012.7
20260507033047 61 258 20.0 29.5 0.00 0.00 0.00 58 1012.5
20260507031546 62 253 23.5 32.2 0.00 0.00 0.00 57 1012.4
20260507030048 62 246 24.3 30.4 0.00 0.00 0.00 57 1012.4
20260507024546 62 246 24.3 31.3 0.00 0.00 0.00 55 1012.2